Regional Weather Roundup
Issued by NWS Charleston, WV

Home | Current Version | Previous Version | Graphics & Text | Print | Product List | Glossary On
Versions: 1 2 3 4 5 6 7 8 9 10 11 12 13 14 15 16 17 18 19 20 21 22 23 24 25 26 27 28 29 30 31 32 33 34 35 36 37 38 39 40 41 42 43 44 45 46 47 48 49 50
000
ASUS41 KRLX 240410
RWRRLX
West Virginia Regional Weather Roundup
National Weather Service Charleston WV
1100 PM EST SUN NOV 23 2014

Note: "fair" indicates few or no clouds below 12,000 feet with no
significant weather and/or obstructions to visibility.

WVZ003-240500-
Northern Panhandle of West Virginia

CITY           SKY/WX    TMP DP  RH WIND       PRES   REMARKS
WHEELING       LGT RAIN  55  51  86 SE20G28   29.49F
$$

WVZ009-240500-
Northwest West Virginia

CITY           SKY/WX    TMP DP  RH WIND       PRES   REMARKS
PARKERSBURG    CLOUDY    58  52  80 SE13G22   29.48F
$$

WVZ006-240500-
Western West Virginia

CITY           SKY/WX    TMP DP  RH WIND       PRES   REMARKS
HUNTINGTON     CLOUDY    59  54  83 S7G18     29.44F
$$

WVZ015-240500-
West Central West Virginia

CITY           SKY/WX    TMP DP  RH WIND       PRES   REMARKS
CHARLESTON     CLOUDY    62  51  67 S18G26    29.49R
$$

WVZ022-031-240500-
North Central West Virginia

CITY           SKY/WX    TMP DP  RH WIND       PRES   REMARKS
CLARKSBURG     RAIN      58  53  84 SE13      29.53F
MORGANTOWN     RAIN      57  50  77 SE13G25   29.57F
$$

WVZ025-035-042-045-240500-
Southern West Virginia

CITY           SKY/WX    TMP DP  RH WIND       PRES   REMARKS
BECKLEY        CLOUDY    54  49  83 SE15G24   29.61R
LOGAN          CLOUDY    61  54  77 S12G30    29.51F
BLUEFIELD      CLOUDY    57  50  77 S18G32    29.62F
LEWISBURG      CLOUDY    55  50  82 S12       29.67F
$$

WVZ047-240500-
Northern Mountains of West Virginia

CITY           SKY/WX    TMP DP  RH WIND       PRES   REMARKS
ELKINS         LGT RAIN  56  51  84 SW7       29.61F
$$

WVZ052-240500-
Eastern Panhandle of West Virginia

CITY           SKY/WX    TMP DP  RH WIND       PRES   REMARKS
MARTINSBURG    LGT RAIN  49  45  86 NE3       29.81F FOG
PETERSBURG     RAIN      50  50 100 W6        29.72F
$$



USA.gov is the U.S. government's official web portal to all federal, state and local government web resources and services.